Weather History for Volk, WI

Change the Weather History Date:

Monday, August 19, 2013

  Actual Average Record
Temperature  
Mean Temperature 66 °F -  
Max Temperature 81 °F 75 °F 91 °F (2003)
Min Temperature 51 °F 60 °F 44 °F (2004)
Growing Degree Days 16 (Base 50)    
Moisture  
Dew Point 58 °F    
Average Humidity 84    
Maximum Humidity 100    
Minimum Humidity 54    
Precipitation  
Precipitation 0.00 in - - ()
Sea Level Pressure  
Sea Level Pressure 30.06 in    
Wind  
Wind Speed 4 mph (SSE)    
Max Wind Speed 15 mph    
Max Gust Speed 20 mph    
Visibility 9 miles    
Events      
Averages and records for this station are not official NWS values.
T = Trace of Precipitation, MM = Missing Value Source: NWS Daily Summary

Daily Weather History Graph

Daily Weather History Graph

Search for Another Location

Airport:

Trip Planner

Search our weather history database for the weather conditions in past years. The results will help you decide how hot, cold, wet, or windy it might be!

Date:

Astronomy

Aug. 19, 2013 Rise Set
Actual Time 6:09 AM CDT 7:58 PM CDT
Civil Twilight 5:39 AM CDT 8:29 PM CDT
Nautical Twilight 5:01 AM CDT 9:06 PM CDT
Astronomical Twilight 4:20 AM CDT 9:47 PM CDT
Moon 6:49 PM CDT (8/19) 4:27 AM CDT (8/19)
Length of Visible Light 14h 50m
Length of Day
13h 48m
Waxing Gibbous, 97% of the Moon is Illuminated
Aug 19
Waxing Gibbous
Aug 20
Full
Aug 28
Last Quarter
Sep 5
New
Sep 12
First Quarter

Hourly Weather History & Observations

Time (CDT) Temp. Heat Index Dew Point Humidity Pressure Visibility Wind Dir Wind Speed Gust Speed Precip Events Conditions
12:13 AM 55.4 °F - 55.4 °F 100% 30.10 in 7.0 mi East 2.3 mph - N/A   Clear
12:23 AM 53.6 °F - 53.6 °F 100% 30.09 in 10.0 mi ESE 2.3 mph - N/A   Clear
12:28 AM 53.6 °F - 53.6 °F 100% 30.09 in 7.0 mi ESE 2.3 mph - N/A   Clear
12:38 AM 53.6 °F - 53.6 °F 100% 30.09 in 10.0 mi ESE 3.5 mph - N/A   Clear
12:58 AM 55.6 °F - 55.6 °F 100% 30.09 in 10.0 mi ESE 3.5 mph - N/A   Clear
1:58 AM 57.0 °F - 56.5 °F 98% 30.08 in 10.0 mi SSE 3.5 mph - N/A   Clear
2:58 AM 55.4 °F - 55.4 °F 100% 30.08 in 10.0 mi East 3.5 mph - N/A   Clear
3:13 AM 53.6 °F - 53.6 °F 100% 30.08 in 7.0 mi ENE 2.3 mph - N/A   Clear
3:23 AM 53.6 °F - 53.6 °F 100% 30.08 in 5.0 mi East 2.3 mph - N/A   Clear
3:28 AM 51.8 °F - 51.8 °F 100% 30.08 in 6.0 mi ESE 3.5 mph - N/A   Clear
3:48 AM 51.8 °F - 51.8 °F 100% 30.08 in 9.0 mi ESE 3.5 mph - N/A   Clear
3:58 AM 52.7 °F - 52.7 °F 100% 30.08 in 10.0 mi ESE 2.3 mph - N/A   Clear
4:18 AM 51.8 °F - 51.8 °F 100% 30.08 in 9.0 mi East 2.3 mph - N/A   Clear
4:23 AM 51.8 °F - 51.8 °F 100% 30.08 in 10.0 mi ENE 1.2 mph - N/A   Partly Cloudy
4:33 AM 53.6 °F - 53.6 °F 100% 30.07 in 9.0 mi East 2.3 mph - N/A   Mostly Cloudy
4:38 AM 53.6 °F - 53.6 °F 100% 30.07 in 10.0 mi East 2.3 mph - N/A   Mostly Cloudy
4:58 AM 56.3 °F - 56.1 °F 99% 30.07 in 10.0 mi SE 3.5 mph - N/A   Scattered Clouds
5:58 AM 54.0 °F - 53.8 °F 99% 30.09 in 10.0 mi Calm Calm - N/A   Clear
6:58 AM 55.4 °F - 55.4 °F 100% 30.09 in 10.0 mi SE 1.2 mph - N/A   Partly Cloudy
7:58 AM 64.4 °F - 59.0 °F 83% 30.07 in 10.0 mi SSE 4.6 mph - N/A   Partly Cloudy
8:58 AM 71.6 °F - 60.8 °F 69% 30.06 in 10.0 mi SSW 6.9 mph - N/A   Partly Cloudy
9:58 AM 73.4 °F - 60.8 °F 65% 30.09 in 10.0 mi SSW 8.1 mph - N/A   Mostly Cloudy
10:58 AM 75.2 °F - 62.6 °F 65% 30.08 in 10.0 mi SSW 10.4 mph - N/A   Mostly Cloudy
11:58 AM 75.2 °F - 60.8 °F 61% 30.08 in 10.0 mi SSW 10.4 mph - N/A   Mostly Cloudy
12:58 PM 78.8 °F - 62.6 °F 57% 30.05 in 10.0 mi WSW 9.2 mph - N/A   Mostly Cloudy
1:58 PM 80.6 °F 81.8 °F 62.6 °F 54% 30.04 in 10.0 mi WSW 11.5 mph - N/A   Mostly Cloudy
2:58 PM 80.6 °F 82.3 °F 64.4 °F 58% 30.03 in 10.0 mi WSW 11.5 mph 19.6 mph N/A   Overcast
3:58 PM 80.6 °F 82.3 °F 64.4 °F 58% 30.03 in 10.0 mi SW 15.0 mph 18.4 mph N/A   Overcast
4:58 PM 80.6 °F 81.8 °F 62.6 °F 54% 30.02 in 10.0 mi SW 12.7 mph - N/A   Overcast
5:58 PM 78.8 °F - 64.4 °F 61% 30.03 in 10.0 mi West 10.4 mph - N/A   Mostly Cloudy
6:58 PM 75.2 °F - 62.6 °F 65% 30.01 in 10.0 mi SSW 5.8 mph - N/A   Mostly Cloudy
7:58 PM 73.4 °F - 62.6 °F 69% 30.01 in 10.0 mi South 5.8 mph - N/A   Scattered Clouds
8:58 PM 71.6 °F - 62.6 °F 73% 30.01 in 10.0 mi South 5.8 mph - N/A   Partly Cloudy
9:58 PM 69.8 °F - 62.6 °F 78% 30.01 in 10.0 mi South 8.1 mph - N/A   Partly Cloudy
10:58 PM 69.8 °F - 62.6 °F 78% 30.01 in 10.0 mi South 6.9 mph - N/A   Partly Cloudy
11:58 PM 69.1 °F - 62.2 °F 79% 30.01 in 10.0 mi SSW 5.8 mph - N/A   Clear